Hourly Data Report for September 17, 2017

All times are specified in Local Standard Time (LST). Add 1 hour to adjust for Daylight Saving Time where and when it is observed.

WOODSTOCK NEWBRIDGE
NEW BRUNSWICK

46°09'08.000" N
67°32'34.000" W
154.00 m
8105603
71606
EWD

Download Data

Hourly Data (September 2017)
Hourly Data Report for September 17, 2017
Temp Definition
°C
Dew Point Temp Definition
°C
Rel Hum Definition
%
Wind Dir Definition
10's deg

Wind Spd Definition
km/h
Visibility Definition
km
Stn Press Definition
kPa
Hmdx Definition


Wind Chill Definition


Weather Definition


TIME
00:00 17.8 14.0 79 9 5   100.39     LegendNANA
01:00 16.6 13.2 80 11 6   100.36     LegendNANA
02:00 15.8 12.7 82 9 5   100.38     LegendNANA
03:00 15.3 11.9 80 10 8   100.34     LegendNANA
04:00 14.7 11.5 81 10 6   100.35     LegendNANA
05:00 14.4 11.5 83 11 3   100.40     LegendNANA
06:00 13.9 11.5 85 11 5   100.42     LegendNANA
07:00 13.7 11.4 86 12 4   100.44     LegendNANA
08:00 14.4 11.6 83 11 6   100.48     LegendNANA
09:00 15.6 12.5 82 12 5   100.49     LegendNANA
10:00 17.5 13.7 78 10 3   100.46     LegendNANA
11:00 20.3 15.0 71 18 2   100.42     LegendNANA
12:00 22.8 15.8 65 18 7   100.35 27   LegendNANA
13:00 24.4 15.9 59 17 8   100.27 29   LegendNANA
14:00 26.4 16.2 53 19 8   100.22 31   LegendNANA
15:00 27.1 15.0 48 25 9   100.19 31   LegendNANA
16:00 26.9 15.6 50 24 7   100.17 31   LegendNANA
17:00 26.8 16.7 54 17 6   100.17 32   LegendNANA
18:00 25.3 16.6 59 16 8   100.19 30   LegendNANA
19:00 22.4 16.1 67 16 3   100.21 27   LegendNANA
20:00 20.8 17.0 79 16 3   100.25 26   LegendNANA
21:00 19.0 16.6 86 16 2   100.29     LegendNANA
22:00 19.5 17.4 88 12 6   100.31     LegendNANA
23:00 18.6 17.2 92 10 9   100.33     LegendNANA

Notes on Data Quality.

Legend

  • E = Estimated
  • M = Missing
  • NA = Not Available
  • ‡ = Partner data that is not subject to review by the National Climate Archives
Date modified: